Terminal Aerodrome Forecast
Issued by NWS Twin Cities, MN

Home | Current Version | Previous Version | Graphics & Text | Print | Product List | Glossary On
Versions: 1 2 3 4 5 6 7 8 9 10 11 12 13 14 15 16 17 18 19 20 21 22 23 24 25 26
000
FTUS43 KMPX 251457 AAA
TAFMSP
TAF AMD
KMSP 251457Z 2515/2618 30012G20KT P6SM OVC016
     FM251630 30014G22KT P6SM OVC020
     FM251800 31015G23KT P6SM SCT030 BKN050
     FM260100 31007KT P6SM FEW050=

USA.gov is the U.S. government's official web portal to all federal, state and local government web resources and services.